[[{"header":{"parameterUnit":"m.s-1","parameterCategory":1,"la1":30.2991,"la2":30.254,"lo1":-89.0895,"lo2":-89.0444,"dy":0.0017,"dx":0.0017,"nx":28,"ny":28,"refTime":"2023-07-29T09:00:00:Z","depth":0,"parameterNumber":2,"parameterNumberName":"U-component_of_WINDS"},"data":[0,0,0,0,0,0,0,0,0,0,0,0,0,0,0,0,0,0,0,0,0,0,0,0,0,0,0,0,0,0,0,0,0,0,0,0,0,0,0,0,0,0,0,0,0,0,0,0,0,0,0,0,0,0,0,0,0,0,1.6206,1.6208,0,1.6337,1.6339,1.634,1.6375,1.6374,1.6373,1.6373,1.6507,1.6511,1.6515,0,0,0,0,0,0,0,0,0,0,0,0,0,1.5984,1.5988,1.6206,1.6208,1.6209,1.6337,1.6339,1.6341,1.6375,1.6374,1.6373,1.6372,1.6505,1.651,1.6516,0,0,0,0,0,0,0,0,0,0,0,0,0,1.6094,1.5989,1.6206,1.6242,1.6246,1.6337,1.6339,1.6341,1.6375,1.6374,1.6373,1.6372,1.6504,1.651,1.6516,1.658,0,0,1.6536,1.6539,0,0,0,0,0,0,0,0,1.6088,1.6102,1.6235,1.624,1.6245,1.6339,1.631,1.6421,1.6376,1.6326,1.6373,1.6371,1.6452,1.6462,1.649,1.6586,1.6592,1.6537,1.6541,1.6543,1.6545,0,0,0,0,0,0,0,1.608,1.6097,1.6258,1.6237,1.6243,1.6251,1.6265,1.6331,1.6394,1.6331,1.6333,1.6348,1.6454,1.6483,1.6493,1.6594,1.6536,1.6542,1.6546,1.6549,1.6748,1.6749,0,0,0,0,0,0,1.6066,1.609,1.6254,1.6262,1.6162,1.6256,1.6272,1.631,1.6394,1.6405,1.6349,1.635,1.6473,1.6485,1.6498,1.6577,1.6543,1.6549,1.6553,1.6747,1.6748,1.675,0,0,0,0,0,0,1.6061,1.6081,1.6249,1.6177,1.6199,1.6261,1.6303,1.6313,1.6342,1.6408,1.6419,1.6368,1.6472,1.6489,1.6559,1.6582,1.6552,1.6558,1.6745,1.6747,1.6749,1.6736,0,0,0,0,0,0,1.6055,1.6079,1.6104,1.6177,1.6203,1.6308,1.6305,1.6316,1.6353,1.6355,1.6428,1.6439,1.6473,1.6549,1.6565,1.659,1.6563,1.6743,1.6746,1.6748,1.6734,1.6737,1.6739,0,0,0,0,0,1.6047,1.6095,1.6105,1.6125,1.6236,1.6309,1.6324,1.6362,1.6355,1.638,1.6422,1.6436,1.6577,1.6556,1.6575,1.6602,1.6742,1.6745,1.6748,1.6733,1.6736,1.6739,0,0,0,0,0,0,1.6023,1.6106,1.6117,1.6191,1.6243,1.6315,1.6348,1.6364,1.6419,1.6418,1.6463,1.6479,1.6546,1.6581,1.6557,1.6667,1.6659,1.6666,1.6642,1.6645,1.6648,1.6637,1.6569,0,0,0,0,0,1.6026,1.608,1.6149,1.6207,1.6232,1.6286,1.6319,1.6344,1.6399,1.6421,1.6469,1.6522,1.6578,1.6614,1.6669,1.674,1.6755,1.6767,1.677,1.6772,1.6777,1.6815,1.6821,1.676,1.676,1.676,0,0,1.6034,1.6085,1.6116,1.6203,1.6246,1.63,1.6304,1.6361,1.64,1.643,1.6499,1.6535,1.6597,1.6668,1.6701,1.6699,1.6797,1.6776,1.6777,1.6781,1.6819,1.6825,1.683,1.6762,1.6762,1.6762,0,0,1.6074,1.6119,1.6172,1.6215,1.628,1.6315,1.6327,1.6397,1.6422,1.6492,1.6515,1.6563,1.6659,1.6701,1.6736,1.6791,1.6805,1.6808,1.6821,1.6857,1.6862,1.6867,1.6885,1.6891,1.6813,1.6813,1.6813,0,1.6075,1.6157,1.6197,1.6252,1.6289,1.6318,1.6371,1.6411,1.649,1.6515,1.6512,1.6632,1.6676,1.6756,1.6769,1.6796,1.6811,1.6799,1.6858,1.6863,1.6868,1.6886,1.6893,1.6813,1.6813,1.6813,1.6813,0,1.6154,1.621,1.6244,1.632,1.6361,1.6415,1.6462,1.6499,1.652,1.6555,1.6625,1.6679,1.6745,1.6766,1.6787,1.6848,1.6845,1.685,1.6843,1.6873,1.689,1.6897,1.6812,1.6812,1.6813,1.6813,0,0,1.6183,1.6279,1.6291,1.6325,1.6398,1.6442,1.6497,1.6561,1.6591,1.6645,1.6691,1.6771,1.6775,1.6814,1.6841,1.6873,1.6911,1.6874,1.6876,1.6877,1.698,1.6975,1.6983,1.6922,1.6923,1.6925,1.6975,0,1.6231,1.633,1.6367,1.6447,1.6499,1.6527,1.6574,1.6624,1.6658,1.6706,1.6744,1.6799,1.6802,1.6825,1.6859,1.69,1.6932,1.6897,1.6964,1.6966,1.6946,1.6992,1.6988,1.7032,1.6982,1.6983,1.6984,0,1.6301,1.6354,1.644,1.6505,1.6528,1.657,1.6631,1.6678,1.6734,1.6757,1.6799,1.6824,1.6881,1.6871,1.695,1.6925,1.6955,1.6979,1.6982,1.6988,1.6976,1.6999,1.7047,1.7053,1.6995,1.6994,1.6994,0,1.6311,1.6405,1.6468,1.6496,1.6575,1.6604,1.6638,1.6693,1.6729,1.6782,1.6806,1.6865,1.6897,1.6943,1.6982,1.6971,1.7057,1.7051,1.7076,1.7075,1.7092,1.709,1.7145,1.7114,1.7113,1.7113,1.7113,0,1.636,1.6411,1.6473,1.6512,1.6569,1.6611,1.6667,1.6703,1.6751,1.6797,1.6825,1.6867,1.6917,1.6965,1.6996,1.7056,1.7071,1.709,1.7098,1.7087,1.7084,1.7106,1.7104,1.7115,1.7115,1.7114,1.7114,0,1.6381,1.6426,1.6496,1.6564,1.6582,1.6621,1.668,1.6718,1.6753,1.681,1.6825,1.6881,1.6939,1.6982,1.7058,1.7079,1.7142,1.7151,1.7123,1.7126,1.7149,1.7145,1.7218,1.7229,1.7192,1.7192,1.7192,0,1.6409,1.6449,1.6521,1.6554,1.6587,1.6639,1.6676,1.6718,1.6755,1.6822,1.6851,1.6911,1.6961,1.7053,1.7099,1.7157,1.7166,1.7188,1.7175,1.7162,1.7165,1.7161,1.7165,1.7189,1.7189,1.7189,1.7189,0,1.6454,1.6473,1.6525,1.6583,1.6626,1.6674,1.6723,1.6748,1.6799,1.6839,1.6898,1.6937,1.7014,1.7072,1.7134,1.7169,1.7187,1.7193,1.7202,1.7191,1.7172,1.7181,1.7126,1.7191,1.7191,1.7191,1.7191,1.7191,1.6478,1.6514,1.657,1.6626,1.6667,1.6712,1.675,1.679,1.684,1.6906,1.6928,1.6989,1.7043,1.7129,1.7164,1.7212,1.7212,1.7225,1.7228,1.723,1.7228,1.7165,1.7223,1.7223,1.7224,1.7224,1.7224,0,1.6523,1.656,1.6611,1.6678,1.6722,1.6735,1.679,1.6825,1.6878,1.6928,1.6976,1.7044,1.7101,1.7151,1.721,1.7239,1.7249,1.7253,1.725,1.7258,1.7226,1.7212,1.7244,1.7244,1.7244,1.7244,1.7244,1.7244,1.6551,1.6612,1.6638,1.6718,1.6756,1.6815,1.6845,1.6886,1.6925,1.6999,1.7047,1.7079,1.7129,1.7192,1.7244,1.7257,1.7277,1.7279,1.7294,1.7263,1.726,1.7258,1.7245,1.7283,1.7283,1.7322,1.7323,1.7323]},{"header":{"parameterUnit":"m.s-1","parameterCategory":1,"la1":30.2991,"la2":30.254,"lo1":-89.0895,"lo2":-89.0444,"dy":0.0017,"dx":0.0017,"nx":28,"ny":28,"refTime":"2023-07-29T09:00:00:Z","depth":0,"parameterNumber":3,"parameterNumberName":"V-component_of_WINDS"},"data":[0,0,0,0,0,0,0,0,0,0,0,0,0,0,0,0,0,0,0,0,0,0,0,0,0,0,0,0,0,0,0,0,0,0,0,0,0,0,0,0,0,0,0,0,0,0,0,0,0,0,0,0,0,0,0,0,0,0,2.9757,2.9757,0,2.9759,2.9759,2.9759,2.9713,2.9712,2.9711,2.9709,2.9711,2.9712,2.9713,0,0,0,0,0,0,0,0,0,0,0,0,0,2.9714,2.9715,2.9757,2.9757,2.9757,2.9759,2.9759,2.9759,2.9713,2.9712,2.971,2.9709,2.971,2.9712,2.9713,0,0,0,0,0,0,0,0,0,0,0,0,0,2.9726,2.9715,2.9757,2.9735,2.9733,2.9759,2.9759,2.9759,2.9714,2.9712,2.971,2.9708,2.971,2.9712,2.9713,2.9761,0,0,2.9719,2.9719,0,0,0,0,0,0,0,0,2.9725,2.9727,2.9738,2.9736,2.9734,2.9734,2.9744,2.9759,2.9714,2.9721,2.9709,2.9707,2.972,2.9721,2.9725,2.9761,2.9761,2.9719,2.972,2.9721,2.9721,0,0,0,0,0,0,0,2.9724,2.9727,2.9758,2.9738,2.9736,2.9724,2.9724,2.9747,2.9731,2.972,2.9717,2.9718,2.9718,2.9723,2.9725,2.9761,2.9719,2.972,2.9721,2.9722,2.9834,2.9836,0,0,0,0,0,0,2.9727,2.9727,2.9758,2.9758,2.9725,2.9726,2.9726,2.9736,2.973,2.9728,2.9719,2.9715,2.9721,2.9723,2.9725,2.9778,2.9721,2.9722,2.9723,2.9832,2.9834,2.9836,0,0,0,0,0,0,2.9726,2.973,2.9758,2.9741,2.9744,2.9729,2.974,2.9737,2.9742,2.973,2.9726,2.9727,2.972,2.9722,2.9752,2.9778,2.9723,2.9725,2.983,2.9833,2.9835,2.9887,0,0,0,0,0,0,2.9725,2.973,2.9748,2.9742,2.9745,2.9785,2.9742,2.9738,2.9745,2.974,2.9736,2.9734,2.9719,2.9749,2.9753,2.9779,2.9726,2.9827,2.9831,2.9834,2.9883,2.9891,2.9899,0,0,0,0,0,2.9723,2.9763,2.9749,2.9753,2.9767,2.9787,2.9788,2.977,2.9747,2.9765,2.9757,2.9734,2.9775,2.9753,2.9757,2.9784,2.9826,2.983,2.9834,2.988,2.989,2.9898,0,0,0,0,0,0,2.9773,2.9762,2.9746,2.9785,2.9787,2.9779,2.9801,2.9782,2.9791,2.9786,2.9763,2.9762,2.9795,2.9793,2.9769,2.9828,2.9796,2.9801,2.9829,2.9839,2.9846,2.9846,2.9727,0,0,0,0,0,2.9788,2.9805,2.9794,2.9829,2.9831,2.9816,2.9824,2.981,2.9811,2.9811,2.9806,2.9808,2.982,2.983,2.9841,2.9883,2.9881,2.9903,2.9911,2.9917,2.9922,2.9942,2.9952,2.9851,2.9851,2.985,0,0,2.982,2.9816,2.9828,2.9839,2.9839,2.9856,2.9817,2.9838,2.985,2.9814,2.9842,2.9838,2.9838,2.9874,2.9889,2.9872,2.995,2.9923,2.9928,2.9929,2.9948,2.9957,2.9966,2.9853,2.9853,2.9852,0,0,2.9886,2.9886,2.9914,2.9915,2.9915,2.9904,2.9911,2.9906,2.9902,2.9929,2.9902,2.9916,2.994,2.9941,2.9944,3.001,2.9989,3.0015,3.0055,3.0075,3.0083,3.009,3.0113,3.0121,3.002,3.002,3.002,0,2.9926,2.9951,2.9931,2.9953,2.9958,2.9927,2.9955,2.9956,2.996,2.9964,2.9946,2.9973,2.9972,3.0006,3.0022,3.0027,3.0033,3.0015,3.0084,3.0091,3.0097,3.0118,3.0126,3.0023,3.0022,3.0022,3.0022,0,2.9999,3.0017,3.004,3.0044,3.0051,3.0077,3.006,3.007,3.0055,3.0046,3.0074,3.0071,3.008,3.0087,3.0073,3.012,3.0109,3.0088,3.0054,3.011,3.0129,3.0137,3.0027,3.0026,3.0025,3.0024,0,0,3.0096,3.0088,3.0097,3.0098,3.0095,3.0109,3.0132,3.0141,3.015,3.0153,3.0171,3.0192,3.0171,3.0175,3.0161,3.0179,3.023,3.0155,3.0154,3.0168,3.028,3.0295,3.0305,3.0216,3.0218,3.0219,3.0279,0,3.016,3.0198,3.0181,3.0221,3.0237,3.0207,3.0227,3.0227,3.022,3.0231,3.0223,3.0237,3.021,3.0212,3.0229,3.022,3.0252,3.0216,3.0232,3.0233,3.0232,3.0315,3.0331,3.0388,3.0287,3.0288,3.0289,0,3.0239,3.0245,3.0287,3.028,3.0286,3.0305,3.0311,3.0323,3.0322,3.0316,3.032,3.0301,3.0323,3.029,3.0319,3.0295,3.0301,3.0298,3.03,3.0299,3.0263,3.0316,3.0406,3.0414,3.0301,3.03,3.0299,0,3.0304,3.0323,3.035,3.0352,3.0345,3.0359,3.0357,3.0354,3.0361,3.0366,3.037,3.0378,3.0383,3.0389,3.0373,3.0351,3.0404,3.037,3.0398,3.0398,3.041,3.0409,3.0501,3.0416,3.0415,3.0415,3.0415,0,3.0376,3.0402,3.0379,3.0396,3.0424,3.0403,3.0432,3.0427,3.0425,3.0439,3.0415,3.0429,3.0407,3.0419,3.0407,3.0432,3.0435,3.0429,3.0425,3.0431,3.0431,3.0433,3.0428,3.0417,3.0417,3.0417,3.0416,0,3.0453,3.0438,3.0466,3.0457,3.0455,3.0477,3.0469,3.0484,3.0474,3.0493,3.0496,3.0482,3.0495,3.0479,3.0491,3.0483,3.0516,3.0507,3.0516,3.0513,3.0541,3.0538,3.0637,3.0648,3.0557,3.0558,3.0558,0,3.0499,3.0518,3.0512,3.0519,3.0519,3.0532,3.0538,3.0518,3.0525,3.0526,3.054,3.0551,3.0558,3.058,3.057,3.0579,3.0569,3.0603,3.057,3.0575,3.0568,3.0567,3.0568,3.0609,3.061,3.0611,3.0612,0,3.0582,3.0574,3.0583,3.059,3.0598,3.0602,3.0605,3.0613,3.0592,3.0601,3.0614,3.062,3.0631,3.0642,3.0647,3.0645,3.0625,3.0623,3.0629,3.0634,3.0638,3.0635,3.0533,3.062,3.0619,3.0619,3.0618,3.0618,3.0644,3.0659,3.0657,3.0668,3.0667,3.067,3.0683,3.0675,3.0685,3.0693,3.0681,3.0696,3.0694,3.07,3.07,3.0711,3.0697,3.0707,3.0709,3.0711,3.0715,3.0637,3.0712,3.0712,3.0712,3.0712,3.0712,0,3.0725,3.0721,3.0731,3.0735,3.0744,3.0724,3.0726,3.0734,3.0748,3.0748,3.0756,3.077,3.078,3.0771,3.0779,3.079,3.0781,3.0792,3.0791,3.079,3.0728,3.0721,3.0799,3.0799,3.0799,3.0799,3.0799,3.0799,3.0767,3.0792,3.0783,3.0807,3.0803,3.0818,3.082,3.0822,3.0822,3.0839,3.0846,3.084,3.0837,3.0844,3.0852,3.0849,3.0853,3.0868,3.0861,3.0803,3.0795,3.0786,3.078,3.0869,3.0869,3.0922,3.0923,3.0923]}]]